www.pogodaiklimat.ru

Погода и климат >> Архив погоды >> Китай >> Внутренняя Монголия >> Эдзин-Ци


ПОГОДА в Эдзин-Ци

  • Прогноз погоды в Эдзин-Ци
  • Монитор погоды в Эдзин-Ци

АРХИВ ПОГОДЫ в Эдзин-Ци

Время (UTC), дата Ветер
(напр.,м/с)
 
Видим.   Явления Облачность Т
(С)
Тd
(С)
f
(%)
Тe
(С)
Тes
(С)
Комфортность P
(гПа)
Po
(гПа)
Тmin
(С)
Tmax
(С)
R
(мм)
R24
(мм)
S
(см)
18 18.05 СЗ 1 30 км ?/? +5.9 -7.0 39 +6 +6 1025.4 915.5 +15.4
21 18.05 С 2 30 км н/о +3.6 -7.5 44 +2 +2 1026.3 913.7
00 19.05 С 1 30 км ясно +6.8 -7.2 36 +7 +10 1028.4 918.9
03 19.05 Ю 3 30 км ясно +11.3 -9.6 22 +10 +23 опасность
простуды
1028.4 918.5
06 19.05 В 5 30 км ясно +14.9 -13.3 13 +14 +24 1025.8 916.6 +3.1
09 19.05 В 2 30 км ясно +17.1 -16.0 9 +18 +26 1023.1 915.8
12 19.05 В 2 30 км ясно +16.2 -16.7 9 +17 +17 1022.0 913.6
15 19.05 В 1 30 км н/о +11.7 -11.2 19 +12 +12 1022.6 913.4
18 19.05 В 2 30 км ?/? +9.3 -11.9 21 +9 +9 1021.7 913.5 +18.0
21 19.05 В 2 30 км н/о +7.6 -13.3 21 +7 +7 1020.4 910.0
00 20.05 В 1 30 км 3/3
[]
+11.3 -11.5 19 +12 +14 1019.9 912.5
03 20.05 В 2 30 км н/о +18.5 -13.7 10 +19 +19 1018.5 912.2
06 20.05 З 2 30 км 9/9
[]
+21.3 -15.9 7 +20 +21 1016.4 909.9 +7.4
09 20.05 В 2 30 км 9/9
[]
+23.3 -18.5 5 +20 +21 1013.7 909.5
12 20.05 З 1 17 км 9/9
[]
+22.3 -15.2 7 +20 +20 1013.0 907.4
15 20.05 Ю 1 15 км н/о +15.0 -6.5 22 +16 +16 1013.7 906.7
18 20.05 Ю 1 23 км ?/? +12.3 -3.5 33 +13 +13 1013.1 907.5 +24.5
21 20.05 З 2 30 км н/о +13.1 -13.0 15 +13 +13 1012.0 904.5
00 21.05 ЮЗ 1 30 км ясно +14.0 -9.3 19 +15 +18 1013.1 907.9
03 21.05 З 2 30 км ясно +24.0 -12.3 8 +21 +36 комфорт 1012.3 908.5
06 21.05 З 3 30 км ясно +28.6 -17.4 4 +24 +40 комфорт 1009.7 905.7 +10.1
09 21.05 З 4 30 км ясно +30.5 -16.1 4 +26 +32 жарко 1006.5 905.4
12 21.05 ЮЗ 1 30 км ясно +29.3 -14.2 5 +25 +25 комфорт 1005.5 902.3
15 21.05 Ю 2 30 км н/о +24.3 -15.6 6 +21 +21 комфорт 1005.3 902.3
18 21.05 Ю 2 30 км ?/? +20.7 -14.7 8 +20 +20 1004.6 902.5 +31.1
21 21.05 ЮЗ 3 30 км н/о +15.6 -13.7 12 +15 +15 1005.2 899.3
00 22.05 З 3 30 км ясно +19.6 -12.8 10 +19 +22 1004.9 902.7
03 22.05 Ю 2 30 км ясно +27.9 -13.0 6 +24 +39 комфорт 1003.9 902.2
06 22.05 Ю 2 30 км 6/6
[]
+33.0 -17.8 3 +28 +36 жарко 1001.1 900.0 +15.4
09 22.05 Ю 3 30 км 9/9
[]
+34.1 -17.1 3 +29 +30 жарко 998.9 899.6
12 22.05 Ю 2 30 км 9/9
[]
+31.4 -15.5 4 +27 +27 жарко 998.4 897.2
15 22.05 Ю 2 30 км н/о +27.3 -15.6 5 +23 +23 комфорт 998.6 897.2
18 22.05 ЮЗ 2 30 км ?/? +22.6 -13.3 8 +20 +20 998.3 897.8 +34.4
21 22.05 ЮЗ 2 30 км н/о +18.8 -10.2 13 +19 +19 997.7 893.6
00 23.05 З 3 24 км 9/9 1500 м
[]
+19.4 -8.8 14 +19 +20 999.4 898.0
03 23.05 Ю 2 30 км 9/9 1500 м
[]
+27.4 -9.7 8 +24 +25 комфорт 999.1 897.7
06 23.05 З 4 11 км 9/9 1500 м
[]
+33.0 -9.3 6 +29 +30 жарко 997.3 896.9 +17.0
09 23.05 З 4 10 км 9/9 1500 м
[]
+34.2 -8.5 6 +30 +30 жарко 995.4 896.5
12 23.05 З 2 14 км 9/9
[]
+32.3 -7.9 7 +28 +28 жарко 995.4 894.6
15 23.05 С 4 17 км н/о +26.6 -1.3 16 +24 +24 комфорт 996.8 895.4
18 23.05 С 3 30 км ?/? +22.2 +1.3 25 +22 +22 комфорт 997.5 897.0 +34.9
21 23.05 З 4 12 км н/о +18.1 -0.2 29 +18 +18 998.3 893.9
00 24.05 З 6 12 км 3/3
[]
+17.6 -3.2 24 +17 +18 1000.6 899.0
03 24.05 З 6 12 км 6/6
[]
+23.2 -4.0 16 +21 +24 комфорт 1001.0 898.1
06 24.05 СЗ 7 9000 м 4/4
[]
+27.5 -4.4 12 +25 +28 комфорт 1000.3 898.7 +16.6
09 24.05 СЗ 5 14 км 9/9
[]
+28.1 -12.8 6 +24 +25 комфорт 1000.3 899.0
12 24.05 С 5 30 км 9/9
[]
+23.6 -14.2 7 +21 +21 комфорт 1002.7 899.4
15 24.05 З 3 30 км н/о +20.2 -15.1 8 +20 +20 1004.6 900.3
18 24.05 З 3 30 км ?/? +17.1 -14.8 10 +17 +17 1005.4 902.4 +29.0
21 24.05 З 4 30 км н/о +15.4 -12.0 14 +15 +15 1005.6 899.5
00 25.05 СЗ 4 30 км 9/9 2000 м
[]
+15.3 -11.2 15 +15 +15 1008.5 904.3
03 25.05 С 3 30 км 9/9
[]
+20.1 -10.2 12 +20 +21 1008.5 903.8
06 25.05 С 3 22 км 3/3
[]
+23.3 -12.8 8 +20 +31 1007.8 903.9 +14.5
09 25.05 З 5 15 км ясно +23.2 -14.5 7 +20 +25 1008.3 904.6
12 25.05 С 6 23 км ясно +20.3 -12.3 10 +19 +19 1010.6 905.6
15 25.05 С 2 30 км ?/? +15.5 -20.2 7 +16 +16 1014.2 907.3

 

Местоположение метеостанции Эдзин-Ци (Внутренняя Монголия, Китай): широта 41.95 долгота 101.06 высота над уровнем моря 941 м.

В архиве по умолчанию представлена погода в Эдзин-Ци за последнюю неделю. Архивные данные за месяц целиком и за предыдущие месяцы, начиная с января 2011 года, Вы можете получить, выбрав интересующий диапазон дат из раскрывающегося списка и нажав кнопку "Ввод!".


*Определитесь, кто Вы:
робот инопланетянин человек

Внимание! Время в таблицах - всемирное. Для получения местного времени необходимо прибавить поправку, которая равна 8 ч.

Смотрите также архив погоды в соседних городах и на ближайших метеорологических станциях:

Погода в Гуайцзыху (Внутренняя Монголия, Китай) (126 км)
Погода в Шинэ Уса (Монголия) (127 км)
Погода в Богде (Монголия) (313 км)
Погода в Баян Мод (Внутренняя Монголия, Китай) (317 км)
Погода в Цзюцюан (Ганьсу, Китай) (325 км)
Погода в Даланзадгаде (Монголия) (328 км)
Погода в Мазонг Шанчжэнь (Ганьсу, Китай) (334 км)
Погода в Чжанъе (Цинхай, Китай) (340 км)
Погода в Амарбуйантайане (Монголия) (353 км)
Погода в Юймэне (Ганьсу, Китай) (386 км)

Пояснения к столбцам:

Ветер - указаны скорость ветра в м/с - средняя за 10 мин, порывы в срок и между сроками (в фигурных скобках) и направление, откуда дует ветер: С - северный, СВ - северо-восточный, В - восточный, ЮВ - юго-восточный, Ю - южный, ЮЗ - юго-западный, З - западный, СЗ - северо-западный.
Видимость - горизонтальная дальность видимости в метрах или километрах. При видимости от 1 до 10 км при отсутствии осадков обычно наблюдается дымка, при ухудшении видимости до 1 км и менее - туман. В сухую погоду видимость может ухудшаться дымом, пылью или мглою.
Явления - указаны атмосферные явления, наблюдавшиеся в срок или в последний час перед сроком; фигурными скобками обозначены явления, наблюдавшиеся между сроками (за 1-3 часа до срока); квадратными скобками обозначены град или гололедные отложения с указанием их диаметра в мм.
Облачность - указаны через наклонную черту общая и нижняя облачность в баллах и высота нижней границы облаков в метрах; квадратными скобками обозначены формы облаков: Ci - перистые, Cs - перисто-слоистые, Cc - перисто-кучевые, Ac - высококучевые, As - высокослоистые, Sc - слоисто-кучевые, Ns - слоисто-дождевые, Cu - кучевые, Cb - кучево-дождевые. Подробнее классификацию облаков см. в Атласе облаков (PDF).
T - Температура воздуха - температура, измеренная на высоте 2 м над землей.
Td - Температура точки росы - температура, при понижении до которой содержащийся в воздухе водяной пар достигнет насыщения.
f - Относительная влажность воздуха - влажноcть воздуха, измеренная на высоте 2 м над землей.
Te - Эффективная температура - температура, которую ощущает одетый по сезону человек в тени. Характеристика душности погоды. При расчете учитывается влияние влажности воздуха и скорости ветра на теплоощущения человека.
Tes - Эффективная температура на солнце - температура, которую ощущает человек, с поправкой на солнечный нагрев. Характеристика знойности погоды. Зависит от высоты солнца над горизонтом, облачности и скорости ветра. Ночью, в пасмурную погоду, а также при ветре 12 м/с и более поправка равна нулю.
P - Атмосферное давление - приведенное к уровню моря атмосферное давление.
Po - Атмосферное давление - измеренное на уровне метеостанции атмосферное давление.
Tmin - Минимальная температура - минимум температуры воздуха на высоте 2 м над землей.
Tmax - Максимальная температура - максимум температуры воздуха на высоте 2 м над землей.
R - Количество осадков - Количество выпавших осадков за период времени, мм. При наведении курсора мыши на число - период времени, за который выпало указанное количество осадков.
R24 - Количество осадков - Количество выпавших осадков за 24 часа, мм.
S - Снежный покров - Высота снежного покрова, см. При наведении курсора мыши на число - состояние снежного покрова и степень покрытия местности в баллах.